Location: ??????
(42.0089°N, 44.3281°E)
Time: 18:41:45
(UTC+00:00)

USA 267 - Pass Details

Date: 02 June 2022
Orbit: 1101 x 1106 km, 123.0° (Epoch: 28 June)

Event Time Altitude Azimuth Distance (km) Brightness Sun altitude
Rises 20:48:14 0° 98° (E) 3,913 6.0 -25.7°
Reaches altitude 10° 20:50:52 10° 91° (E) 2,957 5.5 -25.7°
Maximum altitude 20:56:48 39° 26° (NNE) 1,592 4.5 -25.7°
Drops below altitude 10° 21:02:46 10° 320° (NW) 2,965 6.1 -25.7°
Sets 21:05:24 0° 313° (NW) 3,925 6.7 -25.7°
